Location: Axtheid
(49.6213°N, 11.8205°E)
Time: 23:13:21
(UTC+00:00)

Envisat - Pass Details

Date: 26 January 2022
Orbit: 764 x 765 km, 98.2° (Epoch: 21 May)

Event Time Altitude Azimuth Distance (km) Brightness Sun altitude
Rises 04:15:28 0° 14° (NNE) 3,243 6.4 -25.4°
Reaches altitude 10° 04:17:47 10° 15° (NNE) 2,313 5.6 -25.0°
Maximum altitude 04:22:54 86° 104° (ESE) 774 2.9 -24.2°
Drops below altitude 10° 04:27:58 10° 194° (SSW) 2,297 5.3 -23.3°
Sets 04:30:16 0° 195° (SSW) 3,219 6.1 -23.0°
